Kendallville, Indiana
Current Conditions -  °F | °C
As of 4:55 AM on Saturday 29 Nov 2014 (Local Time) from KGWB Reporting Station
Clear Clear  
Wind Chill:   Ceiling: Unl
Heat Index:   Visibility: 10mi
Dew Point: -6°   Wind: 0mph
Humidity: 64%   Direction: NA
Pressure: 29.93"   Gusts: NA
Location:  41.44°N, 85.26°W
Report Text: KGWB 290955Z AUTO 00000KT 10SM CLR 00/M06 A2993 RMK AO2
Loading
Personal Weather Stations






























Interactive Weather Map New forecast layout! Learn more

10-Day Weather Forecast

Advertisements
Track Severe Weather on mobile